User: anonymous   Login
Location: Boiro
(42.6475°N, 8.8834°W)
Time: 05:50:14
(UTC+01:00)
Language:

SPROUT - Orbit

View from above orbital plane
View from above orbital plane
View from above satellite
View from above satellite

Ground track
Ground track

The orbit data is extracted from the following two-line orbital elements,

1 39770U 14029E   22026.75199350  .00002786  00000-0  30016-3 0  9999
2 39770  97.9300 143.1554 0008582 185.9597 174.1524 14.89241920416562
Epoch (UTC): 26 January 2022 18:02:52
Eccentricity: 0.0008582
inclination: 97.9300°
perigee height: 594 km
apogee height: 606 km
right ascension of ascending node: 143.1554°
argument of perigee: 185.9597°
revolutions per day: 14.89241920
mean anomaly at epoch: 174.1524°
orbit number at epoch: 41656

The dashed part of the orbit path shows where the satellite is in the earth's shadow,  

DLR